• In Deutschland
  • Länderverzeichnis
  • Für 7 Tage
  • Wassertemperatur
  • Satellitenkarten
  • Wetterkarte
  • Widgets
  • user-avatar
    Anmelden

    Stündliche Wetter Baranovitschi

    Heute, 23 Juni, Freitag

    Zeit Temperatur Niederschläge Wind Luftdruck Luftfeuchtigkeit
    00:00 +13°C° 0 mm 2 m/S 741 mmHg 82%
    01:00 +12°C° 0 mm 1 m/S 741 mmHg 86%
    02:00 +11°C° 0 mm 1 m/S 740 mmHg 93%
    03:00 +11°C° 0 mm 1 m/S 740 mmHg 91%
    04:00 +11°C° 0 mm 1 m/S 740 mmHg 89%
    05:00 +12°C° 0 mm 1 m/S 740 mmHg 88%
    06:00 +14°C° 0 mm 1 m/S 739 mmHg 78%
    07:00 +18°C° 0 mm 1 m/S 739 mmHg 68%
    08:00 +20°C° 0 mm 1 m/S 739 mmHg 59%
    09:00 +21°C° 0 mm 1 m/S 739 mmHg 56%
    10:00 +22°C° 0 mm 1 m/S 738 mmHg 54%
    11:00 +23°C° 0 mm 1 m/S 738 mmHg 51%
    12:00 +22°C° 0,1 mm 1 m/S 738 mmHg 57%
    13:00 +22°C° 0,1 mm 1 m/S 738 mmHg 63%
    14:00 +20°C° 0 mm 1 m/S 738 mmHg 71%
    15:00 +20°C° 0,2 mm 1 m/S 738 mmHg 72%
    16:00 +20°C° 0,2 mm 1 m/S 738 mmHg 73%
    17:00 +20°C° 0,2 mm 1 m/S 738 mmHg 74%
    18:00 +20°C° 0 mm 1 m/S 738 mmHg 78%
    19:00 +19°C° 0 mm 1 m/S 738 mmHg 83%
    20:00 +18°C° 0 mm 1 m/S 739 mmHg 87%
    21:00 +16°C° 0 mm 1 m/S 739 mmHg 89%
    22:00 +14°C° 0 mm 1 m/S 739 mmHg 92%
    23:00 +13°C° 0 mm 1 m/S 739 mmHg 95%

    Morgen, 24 Juni, Samstag

    Zeit Temperatur Niederschläge Wind Luftdruck Luftfeuchtigkeit
    00:00 +13°C° 0 mm 1 m/S 739 mmHg 95%
    01:00 +12°C° 0 mm 1 m/S 740 mmHg 96%
    02:00 +11°C° 0 mm 1 m/S 740 mmHg 96%
    03:00 +12°C° 0,1 mm 1 m/S 740 mmHg 96%
    04:00 +13°C° 0,1 mm 1 m/S 740 mmHg 95%
    05:00 +14°C° 0,1 mm 1 m/S 740 mmHg 95%
    06:00 +15°C° 0,6 mm 1 m/S 740 mmHg 95%
    07:00 +16°C° 0,6 mm 1 m/S 740 mmHg 94%
    08:00 +16°C° 0,6 mm 2 m/S 739 mmHg 94%
    09:00 +17°C° 0,8 mm 2 m/S 740 mmHg 95%
    10:00 +17°C° 0,8 mm 2 m/S 740 mmHg 95%
    11:00 +17°C° 0,8 mm 2 m/S 740 mmHg 96%
    12:00 +17°C° 0,4 mm 3 m/S 740 mmHg 95%
    13:00 +17°C° 0,4 mm 3 m/S 740 mmHg 94%
    14:00 +17°C° 0,4 mm 4 m/S 740 mmHg 92%
    15:00 +18°C° 0 mm 4 m/S 741 mmHg 86%
    16:00 +18°C° 0 mm 4 m/S 741 mmHg 80%
    17:00 +19°C° 0 mm 4 m/S 741 mmHg 74%
    18:00 +18°C° 0 mm 3 m/S 741 mmHg 77%
    19:00 +18°C° 0 mm 2 m/S 741 mmHg 81%
    20:00 +17°C° 0 mm 2 m/S 741 mmHg 84%
    21:00 +17°C° 0 mm 2 m/S 741 mmHg 87%
    22:00 +16°C° 0 mm 2 m/S 742 mmHg 89%
    23:00 +16°C° 0 mm 2 m/S 742 mmHg 92%

    übermorgen, 25 Juni, Sonntag

    Zeit Temperatur Niederschläge Wind Luftdruck Luftfeuchtigkeit
    00:00 +16°C° 0 mm 2 m/S 742 mmHg 93%
    01:00 +16°C° 0 mm 3 m/S 742 mmHg 93%
    02:00 +16°C° 0 mm 3 m/S 742 mmHg 94%
    03:00 +16°C° 0 mm 3 m/S 742 mmHg 95%
    04:00 +16°C° 0 mm 3 m/S 742 mmHg 95%
    05:00 +16°C° 0 mm 3 m/S 742 mmHg 96%
    06:00 +17°C° 0 mm 3 m/S 742 mmHg 93%
    07:00 +17°C° 0 mm 3 m/S 742 mmHg 90%
    08:00 +18°C° 0 mm 3 m/S 742 mmHg 87%
    09:00 +19°C° 0,2 mm 3 m/S 742 mmHg 85%
    10:00 +20°C° 0,2 mm 3 m/S 742 mmHg 82%
    11:00 +21°C° 0,2 mm 3 m/S 742 mmHg 80%
    12:00 +21°C° 0,3 mm 3 m/S 741 mmHg 76%
    13:00 +22°C° 0,3 mm 4 m/S 741 mmHg 73%
    14:00 +23°C° 0,3 mm 4 m/S 741 mmHg 70%
    15:00 +25°C° 0,3 mm 4 m/S 741 mmHg 68%
    16:00 +25°C° 0,3 mm 3 m/S 740 mmHg 65%
    17:00 +25°C° 0,3 mm 3 m/S 740 mmHg 63%
    18:00 +24°C° 0,2 mm 3 m/S 740 mmHg 70%
    19:00 +21°C° 0,2 mm 2 m/S 740 mmHg 77%
    20:00 +20°C° 0,2 mm 2 m/S 739 mmHg 85%
    21:00 +19°C° 0,2 mm 2 m/S 739 mmHg 87%
    22:00 +18°C° 0,2 mm 2 m/S 740 mmHg 89%
    23:00 +17°C° 0,2 mm 2 m/S 740 mmHg 91%

    26 Juni, Montag

    Zeit Temperatur Niederschläge Wind Luftdruck Luftfeuchtigkeit
    00:00 +17°C° 0,1 mm 2 m/S 740 mmHg 93%
    01:00 +16°C° 0,1 mm 2 m/S 740 mmHg 95%
    02:00 +16°C° 0,1 mm 2 m/S 740 mmHg 97%
    03:00 +16°C° 0 mm 2 m/S 740 mmHg 97%
    04:00 +15°C° 0 mm 2 m/S 740 mmHg 98%
    05:00 +15°C° 0 mm 2 m/S 740 mmHg 98%
    06:00 +16°C° 0 mm 2 m/S 740 mmHg 93%
    07:00 +17°C° 0 mm 3 m/S 740 mmHg 88%
    08:00 +17°C° 0 mm 3 m/S 740 mmHg 84%
    09:00 +19°C° 0,1 mm 4 m/S 740 mmHg 72%
    10:00 +20°C° 0,1 mm 5 m/S 740 mmHg 60%
    11:00 +21°C° 0,1 mm 6 m/S 740 mmHg 49%
    12:00 +20°C° 0 mm 6 m/S 740 mmHg 53%
    13:00 +19°C° 0 mm 6 m/S 740 mmHg 57%
    14:00 +17°C° 0 mm 5 m/S 740 mmHg 61%
    15:00 +19°C° 0 mm 5 m/S 740 mmHg 59%
    16:00 +19°C° 0 mm 5 m/S 740 mmHg 56%
    17:00 +20°C° 0 mm 5 m/S 741 mmHg 53%
    18:00 +19°C° 0 mm 4 m/S 741 mmHg 57%
    19:00 +18°C° 0 mm 3 m/S 741 mmHg 62%
    20:00 +17°C° 0 mm 2 m/S 742 mmHg 67%
    21:00 +15°C° 0 mm 2 m/S 742 mmHg 71%
    22:00 +14°C° 0 mm 2 m/S 742 mmHg 75%
    23:00 +13°C° 0 mm 2 m/S 743 mmHg 79%

    27 Juni, Dienstag

    Zeit Temperatur Niederschläge Wind Luftdruck Luftfeuchtigkeit
    00:00 +12°C° 0 mm 2 m/S 743 mmHg 81%
    01:00 +12°C° 0 mm 2 m/S 743 mmHg 82%
    02:00 +10°C° 0 mm 2 m/S 744 mmHg 84%
    03:00 +10°C° 0 mm 2 m/S 744 mmHg 85%
    04:00 +10°C° 0 mm 2 m/S 744 mmHg 86%
    05:00 +10°C° 0 mm 2 m/S 744 mmHg 86%
    06:00 +12°C° 0 mm 3 m/S 745 mmHg 76%
    07:00 +14°C° 0 mm 3 m/S 745 mmHg 66%
    08:00 +18°C° 0 mm 4 m/S 745 mmHg 56%
    09:00 +19°C° 0 mm 4 m/S 745 mmHg 52%
    10:00 +20°C° 0 mm 4 m/S 745 mmHg 48%
    11:00 +21°C° 0 mm 4 m/S 745 mmHg 44%
    12:00 +22°C° 0 mm 4 m/S 745 mmHg 43%
    13:00 +23°C° 0 mm 4 m/S 745 mmHg 42%
    14:00 +25°C° 0 mm 4 m/S 745 mmHg 41%
    15:00 +25°C° 0 mm 4 m/S 745 mmHg 41%
    16:00 +25°C° 0 mm 3 m/S 745 mmHg 42%
    17:00 +25°C° 0 mm 3 m/S 745 mmHg 42%
    18:00 +22°C° 0 mm 3 m/S 745 mmHg 51%
    19:00 +20°C° 0 mm 2 m/S 745 mmHg 61%
    20:00 +19°C° 0 mm 1 m/S 745 mmHg 70%
    21:00 +16°C° 0 mm 1 m/S 745 mmHg 76%
    22:00 +14°C° 0 mm 1 m/S 745 mmHg 82%
    23:00 +12°C° 0 mm 1 m/S 745 mmHg 88%

    28 Juni, Mittwoch

    Zeit Temperatur Niederschläge Wind Luftdruck Luftfeuchtigkeit
    00:00 +12°C° 0 mm 1 m/S 745 mmHg 88%
    01:00 +12°C° 0 mm 1 m/S 745 mmHg 88%
    02:00 +12°C° 0 mm 1 m/S 745 mmHg 88%
    03:00 +13°C° 0 mm 2 m/S 745 mmHg 87%
    04:00 +13°C° 0 mm 2 m/S 745 mmHg 85%
    05:00 +13°C° 0 mm 2 m/S 745 mmHg 83%
    06:00 +16°C° 0 mm 2 m/S 745 mmHg 76%
    07:00 +18°C° 0 mm 2 m/S 745 mmHg 69%
    08:00 +20°C° 0 mm 2 m/S 745 mmHg 61%
    09:00 +23°C° 0 mm 2 m/S 745 mmHg 57%
    10:00 +26°C° 0 mm 3 m/S 744 mmHg 54%
    11:00 +28°C° 0 mm 3 m/S 744 mmHg 50%
    12:00 +29°C° 0 mm 3 m/S 744 mmHg 48%
    13:00 +30°C° 0 mm 3 m/S 743 mmHg 45%
    14:00 +31°C° 0 mm 3 m/S 742 mmHg 43%
    15:00 +31°C° 0 mm 3 m/S 742 mmHg 44%
    16:00 +31°C° 0 mm 3 m/S 742 mmHg 46%
    17:00 +31°C° 0 mm 3 m/S 741 mmHg 48%
    18:00 +29°C° 0,2 mm 3 m/S 741 mmHg 58%
    19:00 +27°C° 0,2 mm 3 m/S 741 mmHg 69%
    20:00 +25°C° 0,2 mm 3 m/S 741 mmHg 79%
    21:00 +24°C° 0,3 mm 3 m/S 740 mmHg 83%
    22:00 +22°C° 0,3 mm 3 m/S 740 mmHg 87%
    23:00 +21°C° 0,3 mm 3 m/S 740 mmHg 91%
    Mehr zeigen